When you browse on this site, cookies collect data to enhance your experience and personalize the content and advertising you see.
Visit our Privacy Policy to learn more. By continuing to use the site, you agree to this use of cookies and data.
  • In Hungary
  • List of Countries
  • For 7 days
  • Water Temperature
  • Weather Map
  • News
  • Weather Widgets
  • user-avatar
    Login

    Hourly Weather Kwasnina

    Today, 6 December, Friday

    Time Temperature Precipitation Wind Pressure Humidity
    00:00 -3°C° 0 mm 4 mps 747 mmHg 71%
    01:00 -2°C° 0 mm 3 mps 747 mmHg 74%
    02:00 -3°C° 0 mm 4 mps 747 mmHg 74%
    03:00 -3°C° 0 mm 4 mps 746 mmHg 73%
    04:00 -4°C° 0 mm 5 mps 746 mmHg 72%
    05:00 -4°C° 0 mm 5 mps 746 mmHg 71%
    06:00 -4°C° 0 mm 5 mps 746 mmHg 69%
    07:00 -4°C° 0 mm 5 mps 745 mmHg 67%
    08:00 -3°C° 0 mm 6 mps 745 mmHg 62%
    09:00 -2°C° 0 mm 6 mps 745 mmHg 58%
    10:00 -1°C° 0 mm 6 mps 744 mmHg 53%
    11:00 +1°C° 0 mm 6 mps 744 mmHg 49%
    12:00 +2°C° 0 mm 6 mps 744 mmHg 45%
    13:00 +3°C° 0 mm 6 mps 744 mmHg 42%
    14:00 +2°C° 0 mm 5 mps 744 mmHg 45%
    15:00 +1°C° 0 mm 5 mps 743 mmHg 49%
    16:00 0°C° 0 mm 5 mps 742 mmHg 52%
    17:00 -1°C° 0 mm 5 mps 742 mmHg 53%
    18:00 -1°C° 0 mm 5 mps 742 mmHg 54%
    19:00 -1°C° 0 mm 5 mps 742 mmHg 55%
    20:00 -1°C° 0 mm 5 mps 742 mmHg 55%
    21:00 -1°C° 0 mm 5 mps 742 mmHg 54%
    22:00 -1°C° 0 mm 5 mps 742 mmHg 54%
    23:00 -1°C° 0 mm 5 mps 741 mmHg 55%

    Tomorrow, 7 December, Saturday

    Time Temperature Precipitation Wind Pressure Humidity
    00:00 0°C° 0 mm 5 mps 741 mmHg 56%
    01:00 0°C° 0 mm 5 mps 740 mmHg 57%
    02:00 0°C° 0 mm 5 mps 740 mmHg 59%
    03:00 +1°C° 0 mm 6 mps 739 mmHg 61%
    04:00 +1°C° 0 mm 6 mps 739 mmHg 62%
    05:00 +1°C° 0.1 mm 6 mps 739 mmHg 67%
    06:00 +2°C° 0.1 mm 6 mps 739 mmHg 72%
    07:00 +2°C° 0.1 mm 6 mps 739 mmHg 77%
    08:00 +3°C° 0.1 mm 7 mps 739 mmHg 77%
    09:00 +4°C° 0.1 mm 7 mps 739 mmHg 76%
    10:00 +4°C° 0.1 mm 7 mps 738 mmHg 75%
    11:00 +4°C° 0.2 mm 8 mps 739 mmHg 79%
    12:00 +5°C° 0.2 mm 8 mps 739 mmHg 82%
    13:00 +5°C° 0.2 mm 8 mps 739 mmHg 85%
    14:00 +5°C° 0.3 mm 8 mps 739 mmHg 85%
    15:00 +5°C° 0.3 mm 7 mps 739 mmHg 85%
    16:00 +5°C° 0.3 mm 7 mps 739 mmHg 85%
    17:00 +5°C° 0.1 mm 7 mps 740 mmHg 84%
    18:00 +4°C° 0.1 mm 7 mps 740 mmHg 83%
    19:00 +4°C° 0.1 mm 7 mps 740 mmHg 82%
    20:00 +4°C° 0.2 mm 7 mps 741 mmHg 82%
    21:00 +4°C° 0.2 mm 7 mps 741 mmHg 83%
    22:00 +4°C° 0.2 mm 7 mps 741 mmHg 84%
    23:00 +4°C° 0.3 mm 6 mps 741 mmHg 85%

    Day after tomorrow, 8 December, Sunday

    Time Temperature Precipitation Wind Pressure Humidity
    00:00 +4°C° 0.3 mm 6 mps 741 mmHg 86%
    01:00 +5°C° 0.3 mm 5 mps 742 mmHg 88%
    02:00 +5°C° 0.1 mm 5 mps 742 mmHg 87%
    03:00 +5°C° 0.1 mm 5 mps 742 mmHg 86%
    04:00 +5°C° 0.1 mm 5 mps 742 mmHg 85%
    05:00 +5°C° 0 mm 5 mps 742 mmHg 84%
    06:00 +3°C° 0 mm 5 mps 742 mmHg 84%
    07:00 +3°C° 0 mm 5 mps 742 mmHg 84%
    08:00 +3°C° 0 mm 5 mps 742 mmHg 81%
    09:00 +5°C° 0 mm 5 mps 741 mmHg 78%
    10:00 +4°C° 0 mm 6 mps 741 mmHg 75%
    11:00 +4°C° 0 mm 6 mps 741 mmHg 72%
    12:00 +5°C° 0 mm 6 mps 740 mmHg 70%
    13:00 +5°C° 0 mm 7 mps 739 mmHg 67%
    14:00 +5°C° 0 mm 7 mps 739 mmHg 68%
    15:00 +5°C° 0 mm 7 mps 738 mmHg 70%
    16:00 +4°C° 0 mm 6 mps 737 mmHg 72%
    17:00 +5°C° 0.1 mm 7 mps 737 mmHg 73%
    18:00 +5°C° 0.1 mm 7 mps 737 mmHg 74%
    19:00 +5°C° 0.1 mm 8 mps 736 mmHg 76%
    20:00 +5°C° 0.7 mm 7 mps 736 mmHg 79%
    21:00 +5°C° 0.7 mm 7 mps 735 mmHg 82%
    22:00 +5°C° 0.7 mm 7 mps 735 mmHg 86%
    23:00 +6°C° 0.2 mm 7 mps 735 mmHg 83%

    9 December, Monday

    Time Temperature Precipitation Wind Pressure Humidity
    00:00 +6°C° 0.2 mm 7 mps 734 mmHg 81%
    01:00 +7°C° 0.2 mm 6 mps 734 mmHg 79%
    02:00 +7°C° 0.6 mm 6 mps 734 mmHg 82%
    03:00 +7°C° 0.6 mm 5 mps 734 mmHg 86%
    04:00 +7°C° 0.6 mm 4 mps 733 mmHg 90%
    05:00 +6°C° 0.5 mm 4 mps 733 mmHg 87%
    06:00 +6°C° 0.5 mm 4 mps 733 mmHg 84%
    07:00 +5°C° 0.5 mm 4 mps 733 mmHg 81%
    08:00 +6°C° 0 mm 4 mps 734 mmHg 78%
    09:00 +6°C° 0 mm 5 mps 734 mmHg 75%
    10:00 +6°C° 0 mm 5 mps 734 mmHg 72%
    11:00 +6°C° 0 mm 5 mps 734 mmHg 69%
    12:00 +6°C° 0 mm 5 mps 733 mmHg 67%
    13:00 +7°C° 0 mm 5 mps 733 mmHg 65%
    14:00 +6°C° 0 mm 5 mps 733 mmHg 67%
    15:00 +5°C° 0 mm 4 mps 732 mmHg 68%
    16:00 +5°C° 0 mm 4 mps 732 mmHg 70%
    17:00 +4°C° 0 mm 4 mps 732 mmHg 73%
    18:00 +4°C° 0 mm 4 mps 732 mmHg 76%
    19:00 +3°C° 0 mm 4 mps 732 mmHg 79%
    20:00 +3°C° 0 mm 4 mps 732 mmHg 80%
    21:00 +3°C° 0 mm 4 mps 732 mmHg 82%
    22:00 +1°C° 0 mm 4 mps 732 mmHg 83%
    23:00 +1°C° 0 mm 4 mps 732 mmHg 83%

    10 December, Tuesday

    Time Temperature Precipitation Wind Pressure Humidity
    00:00 +1°C° 0 mm 4 mps 732 mmHg 84%
    01:00 +1°C° 0 mm 4 mps 731 mmHg 84%
    02:00 +3°C° 0.2 mm 4 mps 732 mmHg 86%
    03:00 +2°C° 0.2 mm 5 mps 732 mmHg 87%
    04:00 +2°C° 0.2 mm 5 mps 733 mmHg 89%
    05:00 +2°C° 0.4 mm 6 mps 733 mmHg 88%
    06:00 +2°C° 0.4 mm 6 mps 734 mmHg 88%
    07:00 0°C° 0.4 mm 7 mps 734 mmHg 87%
    08:00 0°C° 0.1 mm 7 mps 735 mmHg 89%
    09:00 0°C° 0.1 mm 7 mps 736 mmHg 90%
    10:00 -1°C° 0.1 mm 7 mps 737 mmHg 92%
    11:00 0°C° 0.1 mm 7 mps 737 mmHg 90%
    12:00 +2°C° 0.1 mm 7 mps 738 mmHg 89%
    13:00 +2°C° 0.1 mm 7 mps 739 mmHg 87%
    14:00 +2°C° 0.2 mm 7 mps 740 mmHg 86%
    15:00 +2°C° 0.2 mm 7 mps 741 mmHg 84%
    16:00 0°C° 0.2 mm 7 mps 742 mmHg 82%
    17:00 0°C° 0.1 mm 7 mps 743 mmHg 79%
    18:00 -1°C° 0.1 mm 7 mps 744 mmHg 75%
    19:00 -1°C° 0.1 mm 6 mps 745 mmHg 72%
    20:00 -1°C° 0 mm 5 mps 746 mmHg 73%
    21:00 -2°C° 0 mm 4 mps 746 mmHg 75%
    22:00 -2°C° 0 mm 3 mps 747 mmHg 76%
    23:00 -2°C° 0 mm 3 mps 747 mmHg 77%

    11 December, Wednesday

    Time Temperature Precipitation Wind Pressure Humidity
    00:00 -2°C° 0 mm 3 mps 746 mmHg 78%
    01:00 -2°C° 0 mm 3 mps 746 mmHg 79%
    02:00 -2°C° 0 mm 3 mps 745 mmHg 75%
    03:00 -3°C° 0 mm 4 mps 745 mmHg 70%
    04:00 -2°C° 0 mm 5 mps 744 mmHg 66%
    05:00 -2°C° 0 mm 5 mps 743 mmHg 66%
    06:00 -3°C° 0 mm 6 mps 743 mmHg 66%
    07:00 -3°C° 0 mm 6 mps 742 mmHg 66%
    08:00 -2°C° 0 mm 6 mps 741 mmHg 63%
    09:00 -2°C° 0 mm 7 mps 741 mmHg 60%
    10:00 -1°C° 0 mm 7 mps 740 mmHg 57%
    11:00 0°C° 0.1 mm 7 mps 740 mmHg 58%
    12:00 0°C° 0.1 mm 7 mps 739 mmHg 58%
    13:00 0°C° 0.1 mm 7 mps 738 mmHg 58%
    14:00 0°C° 0.7 mm 7 mps 738 mmHg 67%
    15:00 0°C° 0.7 mm 7 mps 738 mmHg 76%
    16:00 -1°C° 0.7 mm 7 mps 738 mmHg 84%
    17:00 +1°C° 0 mm 6 mps 738 mmHg 84%
    18:00 +1°C° 0 mm 6 mps 738 mmHg 83%
    19:00 +2°C° 0 mm 6 mps 738 mmHg 83%
    20:00 +2°C° 0.3 mm 6 mps 738 mmHg 85%
    21:00 +2°C° 0.3 mm 6 mps 738 mmHg 87%
    22:00 +2°C° 0.3 mm 6 mps 738 mmHg 90%
    23:00 +1°C° 0.5 mm 5 mps 738 mmHg 91%
    Show more